Location: Unspecified
(0.0000°N, 0.0000°E)
Time: 13:15:32
(UTC+00:00)

FALCON 9 R/B - Pass Details

Date: 07 November 2020
Orbit: 485 x 62261 km, 25.4° (Epoch: 27 November)

Event Time Altitude Azimuth Distance (km) Brightness Sun altitude
Rises 23:43:29 0° 65° (ENE) 47,775 ? -73.7°
Reaches altitude 10° 00:48:12 10° 65° (ENE) 53,448 ? -67.2°
Maximum altitude 07:13:56 70° 355° (N) 62,105 ? 21.6°
Drops below altitude 10° 16:09:31 10° 187° (S) 3,400 ? 22.5°
Sets 16:13:02 0° 154° (SSE) 3,318 ? 21.7°
